Other Public Products
Issued by NWS Grand Forks, ND

Home | Current Version | Previous Version | Graphics & Text | Print | Product List | Glossary On
Versions: 1 2 3 4 5 6 7 8 9 10 11 12 13 14 15 16 17 18 19 20 21 22 23 24 25 26 27 28 29 30 31 32 33 34 35 36 37 38 39 40 41 42 43 44 45 46 47 48 49 50
000
FPUS83 KFGF 101810
OPUFGF
PRAIRIE TO PINES WEATHER ROUNDUP
NATIONAL WEATHER SERVICE EASTERN NORTH DAKOTA/GRAND FORKS ND
1200 PM CST SAT DEC 10 2016

 **SATELLITE DATA USED TO AUGMENT SKY COVER AT AUTOMATED STATIONS**
 *****  WEATHER ACROSS EASTERN NORTH DAKOTA  *****

CITY           SKY/WX    TMP DP  RH WIND       PRES   REMARKS
GRAND FORKS    MOSUNNY   -3  -9  75 E5        30.42F WCI -13
6HR MIN TEMP: -10; 6HR MAX TEMP:  -2;

GRAND FORKS AF SUNNY     -4 -12  68 E3        30.40F
GRAND CITY NWS NOT AVBL
BUXTON         NOT AVBL
DEVILS LAKE    CLOUDY    -6  -9  86 SE9       30.31F WCI -23
6HR MIN TEMP: -20; 6HR MAX TEMP:  -5; 6HR PCP: TRACE;

FARGO          CLOUDY     0  -8  69 E7        30.40F WCI -13
6HR MIN TEMP:  -6; 6HR MAX TEMP:   0;

WAHPETON ARPT  CLOUDY    -2  -9  71 E3        30.40F
$$

 *****  WEATHER ACROSS CENTRAL AND WESTERN NORTH DAKOTA  *****

CITY           SKY/WX    TMP DP  RH WIND       PRES   REMARKS
JAMESTOWN      CLOUDY    -5 -10  79 SE9       30.29F WCI -22
6HR MIN TEMP: -16; 6HR MAX TEMP:  -5;

BISMARCK       CLOUDY   -11 -14  86 E9        30.25F WCI -29
6HR MIN TEMP: -17; 6HR MAX TEMP: -11; 6HR PCP: TRACE;

MINOT          CLOUDY   -11 -16  78 E5        30.24F WCI -23
6HR MIN TEMP: -21; 6HR MAX TEMP: -11;

MINOT AFB      CLOUDY   -14 -20  76 SE5       30.24F WCI -27
6HR MIN TEMP: -26; 6HR MAX TEMP: -14; 6HR PCP: TRACE;

GARRISON         N/A     -8 -12  83 E8        30.21F WCI -24
6HR MIN TEMP: -14; 6HR MAX TEMP:  -7;

WILLISTON      LGT SNOW  -1  -7  75 E9        30.14F WCI -16
6HR MIN TEMP: -11; 6HR MAX TEMP:  -1; 6HR PCP:  0.01;

DICKINSON      CLOUDY    -2  -7  79 SE17      30.01F WCI -23
6HR MIN TEMP:  -9; 6HR MAX TEMP:  -2;

HETTINGER      CLOUDY    -3  -7  82 SE13      30.04F WCI -22
6HR MIN TEMP:  -6; 6HR MAX TEMP:  -3; 6HR PCP: TRACE;

$$

 *****  OTHER OBSERVATIONS NORTHEAST NORTH DAKOTA  *****

CITY           SKY/WX    TMP DP  RH WIND       PRES   REMARKS
WALHALLA         N/A     -4  -4 100 SE3       30.40F
LANGDON        FAIR      -6 -11  77 SE5       30.30F WCI -17
CAVALIER         N/A     -6 -13  71 SE3       30.41F
GRAFTON        FAIR      -8 -13  77 E5        30.44F WCI -19
CANDO          FAIR      -8 -11  84 SE3       30.33F
FORT TOTTEN      N/A     -5 -11  77 SE7       29.95S WCI -19
ROLLA          FAIR     -11 -17  77 S9        30.26F WCI -29
RUGBY            N/A    -11 -15  84 S5        30.29F WCI -23
 ***** THE ABOVE OBSERVATIONS ARE NON NWS ARE NOT QUALITY
        CONTROLLED AND MAY MIS-REPORT RAIN FOR SNOW...
$$

 *****  OTHER OBSERVATIONS SOUTHEAST NORTH DAKOTA *****

CITY           SKY/WX    TMP DP  RH WIND       PRES   REMARKS
COOPERSTOWN    FAIR      -6 -11  77 E6        30.33F WCI -18
VALLEY CITY    CLOUDY    -2  -8  78 SE8       30.35F WCI -17
OAKES          NOT AVBL
GWINNER        FAIR       0  -6  78 E8        30.35F WCI -15
SHEYENNE NWR     N/A     -3 -12  66 E6        29.95S WCI -15
BUFFALO        NOT AVBL
WYNDMERE       NOT AVBL
 ***** THE ABOVE OBSERVATIONS ARE NON NWS ARE NOT QUALITY
       CONTROLLED AND MAY MIS-REPORT RAIN FOR SNOW...
$$

  *****  WEATHER ACROSS NORTHERN MINNESOTA  *****

CITY           SKY/WX    TMP DP  RH WIND       PRES   REMARKS
FLAG ISLAND    SUNNY      0  -6  78 CALM      30.38F
WARROAD        SUNNY     -6  -9  84 CALM      30.39F
ROSEAU         MOSUNNY   -4  -9  77 CALM      30.40F HAZE
HALLOCK        SUNNY     -6  -9  84 SE5       30.42F WCI -17
THF RVR FALLS  MOSUNNY    1  -5  75 SE3       30.40F
6HR MIN TEMP:  -6; 6HR MAX TEMP:   2; 6HR PCP: TRACE;

HALSTAD          N/A     -6 -11  79 SE2         N/A
FOSSTON        SUNNY      0  -9  65 N5        30.37F WCI -10
BAUDETTE       SUNNY     -1  -5  82 CALM      30.37F
6HR MIN TEMP: -14; 6HR MAX TEMP:  -1;

WASKISH        SUNNY      0  -2  92 CALM      30.36F
CROOKSTON      SUNNY     -6  -9  84 SE3       30.42F
$$
  *****  WEATHER ACROSS CENTRAL AND WEST MINNESOTA  *****

CITY           SKY/WX    TMP DP  RH WIND       PRES   REMARKS
BEMIDJI        SUNNY     -3  -8  82 SE3       30.34F
PARK RAPIDS    CLOUDY    -1  -8  72 SE7       30.33F WCI -14
6HR MIN TEMP: -18; 6HR MAX TEMP:   0;

WADENA         CLOUDY    -2  -8  78 CALM      30.35S
DETROIT LAKES  CLOUDY     0  -4  85 S6        30.35F WCI -12
MOORHEAD       CLOUDY    -2  -9  71 E5        30.40F WCI -12
FERGUS FALLS   CLOUDY    -4  -9  77 CALM      30.43F
ELBOW LAKE     CLOUDY    -4  -8  85 CALM      30.36F
MORRIS MN      CLOUDY     0  -6  78 SE3       30.36F
STAPLES        NOT AVBL
WHEATON        CLOUDY     1  -4  78 E3        30.40F
$$
  *****  WEATHER ELSEWHERE ACROSS MINNESOTA  *****

CITY           SKY/WX    TMP DP  RH WIND       PRES   REMARKS
DULUTH         CLOUDY     2  -4  76 SW3       30.34F
6HR MIN TEMP:   1; 6HR MAX TEMP:   4; 6HR PCP: TRACE;

INTRNTL FALLS  SUNNY      2  -3  80 CALM      30.36F
6HR MIN TEMP: -15; 6HR MAX TEMP:   2;

ELY            MOSUNNY    1  -6  71 CALM      30.33F
CLOQUET        CLOUDY     3  -6  66 CALM      30.35F
BRAINERD       CLOUDY     5  -2  72 CALM      30.35F
6HR MIN TEMP:  -1; 6HR MAX TEMP:   5;

HIBBING        MOSUNNY   -1  -8  72 CALM      30.35F
6HR MIN TEMP: -12; 6HR MAX TEMP:  -1; 6HR PCP: TRACE;

ALEXANDRIA     CLOUDY     0  -5  79 S7        30.34F WCI -13
6HR MIN TEMP:  -7; 6HR MAX TEMP:   0;

SAINT CLOUD    CLOUDY     6  -1  73 VRB3      30.38F
6HR MIN TEMP:  -2; 6HR MAX TEMP:   6;

MINNEAPOLIS    CLOUDY     9   0  67 S5        30.41F WCI   1
6HR MIN TEMP:   4; 6HR MAX TEMP:   9;

$$

  *****  WEATHER ACROSS SOUTH DAKOTA  *****

CITY           SKY/WX    TMP DP  RH WIND       PRES   REMARKS
SIOUX FALLS    LGT SNOW  13  10  88 E10       30.26F VSB 1   WCI   0
6HR MIN TEMP:  10; 6HR MAX TEMP:  13; 6HR PCP:  0.08;

BROOKINGS      LGT SNOW   7   1  78 E12       30.25F VSB 3/4 WCI  -9
WATERTOWN      LGT SNOW   1  -3  83 SE8       30.25F VSB 1   WCI -13
6HR MIN TEMP:   1; 6HR MAX TEMP:   2; 6HR PCP:  0.01;

HURON          LGT SNOW  10   6  84 E13       30.23F VSB 1   WCI  -5
6HR MIN TEMP:   1; 6HR MAX TEMP:  10; 6HR PCP:  0.15;

SISSETON         N/A      0  -6  76 S6        30.36F WCI -12
ABERDEEN       LGT SNOW   2  -5  72 NE10      30.29F WCI -14
6HR MIN TEMP:  -6; 6HR MAX TEMP:   2; 6HR PCP:  0.01;

MITCHELL       CLOUDY    14  10  84 E16       30.24F WCI  -2
PIERRE         CLOUDY     4   0  83 E16       30.11F WCI -15
6HR MIN TEMP:  -1; 6HR MAX TEMP:   4; 6HR PCP: TRACE;

MOBRIDGE       LGT SNOW   1  -7  68 E15       30.15F WCI -18
RAPID CITY     CLOUDY     5   1  83 SE10      29.89F WCI -10
6HR MIN TEMP:   0; 6HR MAX TEMP:   5; 6HR PCP: TRACE;

$$

  *****  SOME WEATHER IN NEARBY STATES *****

CITY           SKY/WX    TMP DP  RH WIND       PRES   REMARKS
GLASGOW MT     CLOUDY     0  -6  76 E17G26    29.94F WCI -21
6HR MIN TEMP:  -4; 6HR MAX TEMP:   0; 6HR PCP:  0.02;

GREAT FALLS MT CLOUDY     5   1  83 CALM      29.69F
6HR MIN TEMP:  -3; 6HR MAX TEMP:   5; 6HR PCP: TRACE;

CHEYENNE WY    CLOUDY    48  21  34 W22G30    29.82F
6HR MIN TEMP:  32; 6HR MAX TEMP:  48;

SCOTTSBLUFF NE CLOUDY    21  15  78 E6        29.83F WCI  13
6HR MIN TEMP:  14; 6HR MAX TEMP:  21;

OMAHA NE       CLOUDY    28  18  66 SE15      30.28F WCI  16
6HR MIN TEMP:  22; 6HR MAX TEMP:  28; 6HR PCP:  0.01;

DES MOINES IA  LGT SNOW  23  19  85 SE10      30.35F FOG     WCI  12
6HR MIN TEMP:  23; 6HR MAX TEMP:  24; 6HR PCP:  0.05;

DAVENPORT IA   CLOUDY    24  13  62 S6        30.45F WCI  17
6HR MIN TEMP:  19; 6HR MAX TEMP:  24;

CHICAGO IL     CLOUDY    23  13  65 W8        30.47F WCI  14
6HR MIN TEMP:  18; 6HR MAX TEMP:  23;

EAU CLAIRE WI  CLOUDY    11   2  67 CALM      30.41F
6HR MIN TEMP:   8; 6HR MAX TEMP:  12;

LA CROSSE WI   MOSUNNY   15   6  67 CALM      30.44F
6HR MIN TEMP:   9; 6HR MAX TEMP:  15;

$$

  *****  SOME NATIONAL WEATHER *****

CITY           SKY/WX    TMP DP  RH WIND       PRES   REMARKS
LA GUARDIA NY  CLOUDY    36  18  48 W10       30.34F
6HR MIN TEMP:  31; 6HR MAX TEMP:  36;                             C1F1C2F2C3F3C4F4C5F5C6F6C7F7C8F8C9F9CaFaCbFbCcFcCdFdCe!



USA.gov is the U.S. government's official web portal to all federal, state and local government web resources and services.